Location: Izdebno
(52.6670°N, 16.2170°E)
Time: 06:32:20
(UTC+02:00)

Vanguard 1 - Pass Details

Date: 02 March 2024
Orbit: 653 x 3825 km, 34.2° (Epoch: 22 April)

Event Time Altitude Azimuth Distance (km) Brightness Sun altitude
Rises 20:06:02 0° 245° (WSW) 5,168 14.4 -23.1°
Reaches altitude 10° 20:09:10 10° 238° (WSW) 4,538 13.9 -23.6°
Maximum altitude 20:21:24 40° 175° (S) 3,836 12.7 -25.3°
Enters shadow 20:29:02 30° 138° (SE) 4,800 13.0 -26.3°
